Year,Month,Day,Hour,Minute,Value (Times are PST for temperature in C)
2014,11,17,00,00,-3.70
2014,11,17,00,01,-3.70
2014,11,17,00,02,-3.70
2014,11,17,00,03,-3.70
2014,11,17,00,04,-3.70
2014,11,17,00,05,-3.70
2014,11,17,00,06,-3.70
2014,11,17,00,07,-3.80
2014,11,17,00,08,-3.80
2014,11,17,00,09,-3.80
2014,11,17,00,10,-3.80
2014,11,17,00,11,-3.80
2014,11,17,00,12,-3.80
2014,11,17,00,13,-3.80
2014,11,17,00,14,-3.80
2014,11,17,00,15,-3.80
2014,11,17,00,16,-3.80
2014,11,17,00,17,-3.80
2014,11,17,00,18,-3.80
2014,11,17,00,19,-3.80
2014,11,17,00,20,-3.80
2014,11,17,00,21,-3.80
2014,11,17,00,22,-3.80
2014,11,17,00,23,-3.80
2014,11,17,00,24,-3.80
2014,11,17,00,25,-3.80
2014,11,17,00,26,-3.80
2014,11,17,00,27,-3.80
2014,11,17,00,28,-3.80
2014,11,17,00,29,-3.80
2014,11,17,00,30,-3.80
2014,11,17,00,31,-3.80
2014,11,17,00,32,-3.80
2014,11,17,00,33,-3.80
2014,11,17,00,34,-3.80
2014,11,17,00,35,-3.80
2014,11,17,00,36,-3.80
2014,11,17,00,37,-3.80
2014,11,17,00,38,-3.80
2014,11,17,00,39,-3.90
2014,11,17,00,40,-3.90
2014,11,17,00,41,-3.90
2014,11,17,00,42,-3.90
2014,11,17,00,43,-3.90
2014,11,17,00,44,-3.90
2014,11,17,00,45,-3.90
2014,11,17,00,46,-3.90
2014,11,17,00,47,-4.00
2014,11,17,00,48,-4.00
2014,11,17,00,49,-4.00
2014,11,17,00,50,-4.00
2014,11,17,00,51,-4.00
2014,11,17,00,52,-4.00
2014,11,17,00,53,-4.00
2014,11,17,00,54,-4.00
2014,11,17,00,55,-4.00
2014,11,17,00,56,-4.00
2014,11,17,00,57,-4.00
2014,11,17,00,58,-4.00
2014,11,17,00,59,-4.00
2014,11,17,01,00,-4.00
2014,11,17,01,01,-4.00
2014,11,17,01,02,-4.00
2014,11,17,01,03,-4.00
2014,11,17,01,04,-4.00
2014,11,17,01,05,-4.00
2014,11,17,01,06,-4.00
2014,11,17,01,07,-4.10
2014,11,17,01,08,-4.10
2014,11,17,01,09,-4.10
2014,11,17,01,10,-4.10
2014,11,17,01,11,-4.10
2014,11,17,01,12,-4.10
2014,11,17,01,13,-4.10
2014,11,17,01,14,-4.10
2014,11,17,01,15,-4.00
2014,11,17,01,16,-4.10
2014,11,17,01,17,-4.10
2014,11,17,01,18,-4.10
2014,11,17,01,19,-4.10
2014,11,17,01,20,-4.10
2014,11,17,01,21,-4.10
2014,11,17,01,22,-4.10
2014,11,17,01,23,-4.10
2014,11,17,01,24,-4.10
2014,11,17,01,25,-4.10
2014,11,17,01,26,-4.20
2014,11,17,01,27,-4.20
2014,11,17,01,28,-4.20
2014,11,17,01,29,-4.20
2014,11,17,01,30,-4.20
2014,11,17,01,31,-4.20
2014,11,17,01,32,-4.20
2014,11,17,01,33,-4.20
2014,11,17,01,34,-4.20
2014,11,17,01,35,-4.20
2014,11,17,01,36,-4.20
2014,11,17,01,37,-4.20
2014,11,17,01,38,-4.20
2014,11,17,01,39,-4.30
2014,11,17,01,40,-4.30
2014,11,17,01,41,-4.30
2014,11,17,01,42,-4.30
2014,11,17,01,43,-4.30
2014,11,17,01,44,-4.30
2014,11,17,01,45,-4.30
2014,11,17,01,46,-4.30
2014,11,17,01,47,-4.30
2014,11,17,01,48,-4.30
2014,11,17,01,49,-4.30
2014,11,17,01,50,-4.30
2014,11,17,01,51,-4.30
2014,11,17,01,52,-4.30
2014,11,17,01,53,-4.30
2014,11,17,01,54,-4.30
2014,11,17,01,55,-4.30
2014,11,17,01,56,-4.30
2014,11,17,01,57,-4.30
2014,11,17,01,58,-4.30
2014,11,17,01,59,-4.30
2014,11,17,02,00,-4.30
2014,11,17,02,01,-4.30
2014,11,17,02,02,-4.30
2014,11,17,02,03,-4.40
2014,11,17,02,04,-4.40
2014,11,17,02,05,-4.40
2014,11,17,02,06,-4.40
2014,11,17,02,07,-4.30
2014,11,17,02,08,-4.30
2014,11,17,02,09,-4.30
2014,11,17,02,10,-4.30
2014,11,17,02,11,-4.30
2014,11,17,02,12,-4.30
2014,11,17,02,13,-4.30
2014,11,17,02,14,-4.30
2014,11,17,02,15,-4.30
2014,11,17,02,16,-4.30
2014,11,17,02,17,-4.30
2014,11,17,02,18,-4.30
2014,11,17,02,19,-4.30
2014,11,17,02,20,-4.30
2014,11,17,02,21,-4.30
2014,11,17,02,22,-4.30
2014,11,17,02,23,-4.30
2014,11,17,02,24,-4.30
2014,11,17,02,25,-4.30
2014,11,17,02,26,-4.40
2014,11,17,02,27,-4.40
2014,11,17,02,28,-4.40
2014,11,17,02,29,-4.40
2014,11,17,02,30,-4.40
2014,11,17,02,31,-4.30
2014,11,17,02,32,-4.30
2014,11,17,02,33,-4.40
2014,11,17,02,34,-4.30
2014,11,17,02,35,-4.40
2014,11,17,02,36,-4.40
2014,11,17,02,37,-4.40
2014,11,17,02,38,-4.40
2014,11,17,02,39,-4.40
2014,11,17,02,40,-4.40
2014,11,17,02,41,-4.40
2014,11,17,02,42,-4.40
2014,11,17,02,43,-4.40
2014,11,17,02,44,-4.40
2014,11,17,02,45,-4.40
2014,11,17,02,46,-4.40
2014,11,17,02,47,-4.30
2014,11,17,02,48,-4.30
2014,11,17,02,49,-4.30
2014,11,17,02,50,-4.30
2014,11,17,02,51,-4.30
2014,11,17,02,52,-4.30
2014,11,17,02,53,-4.30
2014,11,17,02,54,-4.30
2014,11,17,02,55,-4.30
2014,11,17,02,56,-4.30
2014,11,17,02,57,-4.30
2014,11,17,02,58,-4.30
2014,11,17,02,59,-4.40
2014,11,17,03,00,-4.40
2014,11,17,03,01,-4.40
2014,11,17,03,02,-4.40
2014,11,17,03,03,-4.50
2014,11,17,03,06,-4.50
2014,11,17,03,07,-4.50
2014,11,17,03,08,-4.50
2014,11,17,03,09,-4.50
2014,11,17,03,10,-4.50
2014,11,17,03,11,-4.60
2014,11,17,03,12,-4.50
2014,11,17,03,13,-4.50
2014,11,17,03,14,-4.60
2014,11,17,03,15,-4.60
2014,11,17,03,16,-4.60
2014,11,17,03,17,-4.60
2014,11,17,03,18,-4.60
2014,11,17,03,19,-4.60
2014,11,17,03,20,-4.60
2014,11,17,03,21,-4.60
2014,11,17,03,22,-4.60
2014,11,17,03,23,-4.60
2014,11,17,03,24,-4.60
2014,11,17,03,25,-4.50
2014,11,17,03,26,-4.50
2014,11,17,03,27,-4.50
2014,11,17,03,28,-4.50
2014,11,17,03,29,-4.50
2014,11,17,03,30,-4.50
2014,11,17,03,31,-4.50
2014,11,17,03,32,-4.50
2014,11,17,03,33,-4.50
2014,11,17,03,34,-4.50
2014,11,17,03,35,-4.50
2014,11,17,03,36,-4.50
2014,11,17,03,37,-4.50
2014,11,17,03,38,-4.50
2014,11,17,03,39,-4.50
2014,11,17,03,40,-4.50
2014,11,17,03,41,-4.50
2014,11,17,03,42,-4.50
2014,11,17,03,43,-4.50
2014,11,17,03,44,-4.50
2014,11,17,03,45,-4.50
2014,11,17,03,46,-4.50
2014,11,17,03,47,-4.50
2014,11,17,03,48,-4.50
2014,11,17,03,49,-4.50
2014,11,17,03,50,-4.50
2014,11,17,03,51,-4.50
2014,11,17,03,52,-4.50
2014,11,17,03,53,-4.50
2014,11,17,03,54,-4.50
2014,11,17,03,55,-4.50
2014,11,17,03,56,-4.50
2014,11,17,03,57,-4.50
2014,11,17,03,58,-4.50
2014,11,17,03,59,-4.50
2014,11,17,04,00,-4.50
2014,11,17,04,01,-4.50
2014,11,17,04,02,-4.50
2014,11,17,04,03,-4.50
2014,11,17,04,04,-4.50
2014,11,17,04,05,-4.50
2014,11,17,04,06,-4.50
2014,11,17,04,07,-4.60
2014,11,17,04,08,-4.60
2014,11,17,04,09,-4.60
2014,11,17,04,10,-4.60
2014,11,17,04,11,-4.60
2014,11,17,04,12,-4.60
2014,11,17,04,13,-4.60
2014,11,17,04,14,-4.60
2014,11,17,04,15,-4.60
2014,11,17,04,16,-4.60
2014,11,17,04,17,-4.60
2014,11,17,04,18,-4.60
2014,11,17,04,19,-4.60
2014,11,17,04,20,-4.60
2014,11,17,04,21,-4.60
2014,11,17,04,22,-4.60
2014,11,17,04,23,-4.60
2014,11,17,04,24,-4.60
2014,11,17,04,25,-4.60
2014,11,17,04,26,-4.60
2014,11,17,04,27,-4.60
2014,11,17,04,28,-4.60
2014,11,17,04,29,-4.60
2014,11,17,04,30,-4.60
2014,11,17,04,31,-4.60
2014,11,17,04,32,-4.60
2014,11,17,04,33,-4.60
2014,11,17,04,34,-4.60
2014,11,17,04,35,-4.60
2014,11,17,04,36,-4.60
2014,11,17,04,37,-4.60
2014,11,17,04,38,-4.60
2014,11,17,04,39,-4.60
2014,11,17,04,40,-4.60
2014,11,17,04,41,-4.60
2014,11,17,04,42,-4.60
2014,11,17,04,43,-4.60
2014,11,17,04,44,-4.60
2014,11,17,04,45,-4.60
2014,11,17,04,46,-4.60
2014,11,17,04,47,-4.50
2014,11,17,04,48,-4.50
2014,11,17,04,49,-4.50
2014,11,17,04,50,-4.60
2014,11,17,04,51,-4.60
2014,11,17,04,52,-4.60
2014,11,17,04,53,-4.60
2014,11,17,04,54,-4.60
2014,11,17,04,55,-4.60
2014,11,17,04,56,-4.50
2014,11,17,04,57,-4.50
2014,11,17,04,58,-4.50
2014,11,17,04,59,-4.50
2014,11,17,05,00,-4.50
2014,11,17,05,01,-4.50
2014,11,17,05,02,-4.50
2014,11,17,05,03,-4.50
2014,11,17,05,04,-4.50
2014,11,17,05,05,-4.50
2014,11,17,05,06,-4.50
2014,11,17,05,07,-4.50
2014,11,17,05,08,-4.50
2014,11,17,05,09,-4.50
2014,11,17,05,10,-4.50
2014,11,17,05,11,-4.50
2014,11,17,05,12,-4.40
2014,11,17,05,13,-4.40
2014,11,17,05,14,-4.40
2014,11,17,05,15,-4.40
2014,11,17,05,16,-4.50
2014,11,17,05,17,-4.50
2014,11,17,05,18,-4.50
2014,11,17,05,19,-4.50
2014,11,17,05,20,-4.50
2014,11,17,05,21,-4.60
2014,11,17,05,22,-4.60
2014,11,17,05,23,-4.60
2014,11,17,05,24,-4.60
2014,11,17,05,25,-4.60
2014,11,17,05,26,-4.60
2014,11,17,05,27,-4.60
2014,11,17,05,28,-4.60
2014,11,17,05,29,-4.60
2014,11,17,05,30,-4.50
2014,11,17,05,31,-4.50
2014,11,17,05,32,-4.50
2014,11,17,05,33,-4.50
2014,11,17,05,34,-4.40
2014,11,17,05,35,-4.40
2014,11,17,05,36,-4.30
2014,11,17,05,37,-4.30
2014,11,17,05,38,-4.30
2014,11,17,05,39,-4.30
2014,11,17,05,40,-4.30
2014,11,17,05,41,-4.30
2014,11,17,05,42,-4.30
2014,11,17,05,43,-4.30
2014,11,17,05,44,-4.40
2014,11,17,05,45,-4.40
2014,11,17,05,46,-4.40
2014,11,17,05,47,-4.40
2014,11,17,05,48,-4.40
2014,11,17,05,49,-4.50
2014,11,17,05,50,-4.50
2014,11,17,05,51,-4.40
2014,11,17,05,52,-4.40
2014,11,17,05,53,-4.40
2014,11,17,05,54,-4.40
2014,11,17,05,55,-4.40
2014,11,17,05,56,-4.40
2014,11,17,05,57,-4.40
2014,11,17,05,58,-4.40
2014,11,17,05,59,-4.40
2014,11,17,06,00,-4.40
2014,11,17,06,01,-4.50
2014,11,17,06,02,-4.50
2014,11,17,06,03,-4.50
2014,11,17,06,04,-4.50
2014,11,17,06,05,-4.50
2014,11,17,06,06,-4.50
2014,11,17,06,07,-4.50
2014,11,17,06,08,-4.50
2014,11,17,06,09,-4.50
2014,11,17,06,10,-4.50
2014,11,17,06,11,-4.60
2014,11,17,06,12,-4.60
2014,11,17,06,13,-4.60
2014,11,17,06,14,-4.60
2014,11,17,06,15,-4.50
2014,11,17,06,16,-4.50
2014,11,17,06,17,-4.50
2014,11,17,06,18,-4.50
2014,11,17,06,19,-4.40
2014,11,17,06,20,-4.40
2014,11,17,06,21,-4.30
2014,11,17,06,22,-4.30
2014,11,17,06,23,-4.30
2014,11,17,06,24,-4.30
2014,11,17,06,25,-4.30
2014,11,17,06,26,-4.40
2014,11,17,06,27,-4.40
2014,11,17,06,28,-4.40
2014,11,17,06,29,-4.40
2014,11,17,06,30,-4.40
2014,11,17,06,31,-4.40
2014,11,17,06,32,-4.30
2014,11,17,06,33,-4.30
2014,11,17,06,34,-4.30
2014,11,17,06,35,-4.30
2014,11,17,06,36,-4.30
2014,11,17,06,37,-4.30
2014,11,17,06,38,-4.20
2014,11,17,06,39,-4.20
2014,11,17,06,40,-4.20
2014,11,17,06,41,-4.30
2014,11,17,06,42,-4.30
2014,11,17,06,43,-4.30
2014,11,17,06,44,-4.40
2014,11,17,06,45,-4.40
2014,11,17,06,46,-4.40
2014,11,17,06,47,-4.50
2014,11,17,06,48,-4.40
2014,11,17,06,49,-4.40
2014,11,17,06,50,-4.40
2014,11,17,06,51,-4.40
2014,11,17,06,52,-4.40
2014,11,17,06,53,-4.50
2014,11,17,06,54,-4.50
2014,11,17,06,55,-4.50
2014,11,17,06,56,-4.50
2014,11,17,06,57,-4.60
2014,11,17,06,58,-4.60
2014,11,17,06,59,-4.60
2014,11,17,07,00,-4.60
2014,11,17,07,01,-4.60
2014,11,17,07,02,-4.60
2014,11,17,07,03,-4.60
2014,11,17,07,04,-4.60
2014,11,17,07,05,-4.60
2014,11,17,07,06,-4.60
2014,11,17,07,07,-4.60
2014,11,17,07,08,-4.60
2014,11,17,07,09,-4.60
2014,11,17,07,10,-4.50
2014,11,17,07,11,-4.50
2014,11,17,07,12,-4.40
2014,11,17,07,13,-4.30
2014,11,17,07,14,-4.30
2014,11,17,07,15,-4.30
2014,11,17,07,16,-4.20
2014,11,17,07,17,-4.20
2014,11,17,07,18,-4.20
2014,11,17,07,19,-4.10
2014,11,17,07,20,-4.10
2014,11,17,07,21,-4.10
2014,11,17,07,22,-4.10
2014,11,17,07,23,-4.10
2014,11,17,07,24,-4.10
2014,11,17,07,25,-4.10
2014,11,17,07,26,-4.10
2014,11,17,07,27,-4.10
2014,11,17,07,28,-4.10
2014,11,17,07,29,-4.20
2014,11,17,07,30,-4.10
2014,11,17,07,31,-4.20
2014,11,17,07,32,-4.20
2014,11,17,07,33,-4.20
2014,11,17,07,34,-4.10
2014,11,17,07,35,-4.10
2014,11,17,07,36,-4.10
2014,11,17,07,37,-4.20
2014,11,17,07,38,-4.20
2014,11,17,07,39,-4.20
2014,11,17,07,40,-4.20
2014,11,17,07,41,-4.20
2014,11,17,07,42,-4.20
2014,11,17,07,43,-4.20
2014,11,17,07,44,-4.20
2014,11,17,07,45,-4.10
2014,11,17,07,46,-4.10
2014,11,17,07,47,-4.10
2014,11,17,07,48,-4.10
2014,11,17,07,49,-4.10
2014,11,17,07,50,-4.10
2014,11,17,07,51,-4.10
2014,11,17,07,52,-4.20
2014,11,17,07,53,-4.20
2014,11,17,07,54,-4.20
2014,11,17,07,55,-4.20
2014,11,17,07,56,-4.20
2014,11,17,07,57,-4.20
2014,11,17,07,58,-4.20
2014,11,17,07,59,-4.20
2014,11,17,08,00,-4.20
2014,11,17,08,01,-4.20
2014,11,17,08,02,-4.20
2014,11,17,08,03,-4.10
2014,11,17,08,04,-4.10
2014,11,17,08,05,-4.00
2014,11,17,08,06,-4.00
2014,11,17,08,07,-3.90
2014,11,17,08,08,-3.90
2014,11,17,08,09,-3.80
2014,11,17,08,10,-3.80
2014,11,17,08,11,-3.80
2014,11,17,08,12,-3.80
2014,11,17,08,13,-3.80
2014,11,17,08,14,-3.80
2014,11,17,08,15,-3.70
2014,11,17,08,16,-3.70
2014,11,17,08,17,-3.70
2014,11,17,08,18,-3.70
2014,11,17,08,19,-3.70
2014,11,17,08,20,-3.70
2014,11,17,08,21,-3.60
2014,11,17,08,22,-3.60
2014,11,17,08,23,-3.60
2014,11,17,08,24,-3.50
2014,11,17,08,25,-3.50
2014,11,17,08,26,-3.50
2014,11,17,08,27,-3.40
2014,11,17,08,28,-3.40
2014,11,17,08,29,-3.40
2014,11,17,08,30,-3.30
2014,11,17,08,31,-3.30
2014,11,17,08,32,-3.30
2014,11,17,08,33,-3.30
2014,11,17,08,34,-3.20
2014,11,17,08,35,-3.20
2014,11,17,08,36,-3.20
2014,11,17,08,37,-3.10
2014,11,17,08,38,-3.10
2014,11,17,08,39,-3.10
2014,11,17,08,40,-3.10
2014,11,17,08,41,-3.10
2014,11,17,08,42,-3.10
2014,11,17,08,43,-3.00
2014,11,17,08,44,-3.00
2014,11,17,08,45,-3.00
2014,11,17,08,46,-2.90
2014,11,17,08,47,-2.80
2014,11,17,08,48,-2.80
2014,11,17,08,49,-2.80
2014,11,17,08,50,-2.70
2014,11,17,08,51,-2.70
2014,11,17,08,52,-2.70
2014,11,17,08,53,-2.60
2014,11,17,08,54,-2.60
2014,11,17,08,55,-2.60
2014,11,17,08,56,-2.50
2014,11,17,08,57,-2.40
2014,11,17,08,58,-2.40
2014,11,17,08,59,-2.30
2014,11,17,09,00,-2.30
2014,11,17,09,01,-2.30
2014,11,17,09,02,-2.20
2014,11,17,09,03,-2.20
2014,11,17,09,04,-2.20
2014,11,17,09,05,-2.20
2014,11,17,09,06,-2.10
2014,11,17,09,07,-2.10
2014,11,17,09,08,-2.10
2014,11,17,09,09,-2.00
2014,11,17,09,10,-2.00
2014,11,17,09,11,-2.00
2014,11,17,09,12,-1.90
2014,11,17,09,13,-1.90
2014,11,17,09,14,-1.90
2014,11,17,09,15,-1.80
2014,11,17,09,16,-1.80
2014,11,17,09,17,-1.70
2014,11,17,09,18,-1.60
2014,11,17,09,19,-1.60
2014,11,17,09,20,-1.50
2014,11,17,09,21,-1.50
2014,11,17,09,22,-1.40
2014,11,17,09,23,-1.40
2014,11,17,09,24,-1.30
2014,11,17,09,25,-1.30
2014,11,17,09,26,-1.20
2014,11,17,09,27,-1.20
2014,11,17,09,28,-1.10
2014,11,17,09,29,-1.00
2014,11,17,09,30,-1.00
2014,11,17,09,31,-0.90
2014,11,17,09,32,-0.90
2014,11,17,09,33,-0.80
2014,11,17,09,34,-0.80
2014,11,17,09,35,-0.70
2014,11,17,09,36,-0.70
2014,11,17,09,37,-0.60
2014,11,17,09,38,-0.50
2014,11,17,09,39,-0.50
2014,11,17,09,40,-0.40
2014,11,17,09,41,-0.40
2014,11,17,09,42,-0.40
2014,11,17,09,43,-0.30
2014,11,17,09,44,-0.30
2014,11,17,09,45,-0.30
2014,11,17,09,46,-0.30
2014,11,17,09,47,-0.30
2014,11,17,09,48,-0.20
2014,11,17,09,49,-0.20
2014,11,17,09,50,-0.20
2014,11,17,09,51,-0.20
2014,11,17,09,52,-0.20
2014,11,17,09,53,-0.20
2014,11,17,09,54,-0.10
2014,11,17,09,55,-0.10
2014,11,17,09,56,-0.10
2014,11,17,09,57,0.00
2014,11,17,09,58,0.00
2014,11,17,09,59,0.10
2014,11,17,10,00,0.20
2014,11,17,10,01,0.20
2014,11,17,10,02,0.30
2014,11,17,10,03,0.40
2014,11,17,10,04,0.40
2014,11,17,10,05,0.50
2014,11,17,10,06,0.60
2014,11,17,10,07,0.70
2014,11,17,10,08,0.70
2014,11,17,10,09,0.80
2014,11,17,10,10,0.90
2014,11,17,10,11,0.90
2014,11,17,10,12,1.00
2014,11,17,10,13,1.10
2014,11,17,10,14,1.10
2014,11,17,10,15,1.20
2014,11,17,10,16,1.30
2014,11,17,10,17,1.30
2014,11,17,10,18,1.30
2014,11,17,10,19,1.30
2014,11,17,10,20,1.40
2014,11,17,10,21,1.50
2014,11,17,10,22,1.60
2014,11,17,10,23,1.60
2014,11,17,10,24,1.70
2014,11,17,10,25,1.80
2014,11,17,10,26,1.90
2014,11,17,10,27,1.90
2014,11,17,10,28,2.00
2014,11,17,10,29,2.10
2014,11,17,10,30,2.20
2014,11,17,10,31,2.20
2014,11,17,10,32,2.30
2014,11,17,10,33,2.30
2014,11,17,10,34,2.40
2014,11,17,10,35,2.40
2014,11,17,10,36,2.50
2014,11,17,10,37,2.50
2014,11,17,10,38,2.60
2014,11,17,10,39,2.70
2014,11,17,10,40,2.70
2014,11,17,10,41,2.70
2014,11,17,10,42,2.80
2014,11,17,10,43,2.80
2014,11,17,10,44,2.90
2014,11,17,10,45,3.00
2014,11,17,10,46,3.00
2014,11,17,10,47,3.10
2014,11,17,10,48,3.20
2014,11,17,10,49,3.30
2014,11,17,10,50,3.40
2014,11,17,10,51,3.50
2014,11,17,10,52,3.50
2014,11,17,10,53,3.60
2014,11,17,10,54,3.70
2014,11,17,10,55,3.70
2014,11,17,10,56,3.80
2014,11,17,10,57,3.80
2014,11,17,10,58,3.80
2014,11,17,10,59,3.90
2014,11,17,11,00,3.90
2014,11,17,11,01,3.90
2014,11,17,11,02,4.00
2014,11,17,11,03,4.00
2014,11,17,11,04,4.00
2014,11,17,11,05,4.10
2014,11,17,11,06,4.20
2014,11,17,11,07,4.30
2014,11,17,11,08,4.40
2014,11,17,11,09,4.50
2014,11,17,11,10,4.60
2014,11,17,11,11,4.70
2014,11,17,11,12,4.70
2014,11,17,11,13,4.80
2014,11,17,11,14,4.80
2014,11,17,11,15,4.90
2014,11,17,11,16,4.90
2014,11,17,11,17,5.00
2014,11,17,11,18,5.10
2014,11,17,11,19,5.20
2014,11,17,11,20,5.30
2014,11,17,11,21,5.30
2014,11,17,11,22,5.40
2014,11,17,11,23,5.50
2014,11,17,11,24,5.50
2014,11,17,11,25,5.60
2014,11,17,11,26,5.60
2014,11,17,11,27,5.70
2014,11,17,11,28,5.70
2014,11,17,11,29,5.70
2014,11,17,11,30,5.80
2014,11,17,11,31,5.80
2014,11,17,11,32,5.90
2014,11,17,11,33,6.00
2014,11,17,11,34,6.00
2014,11,17,11,35,6.10
2014,11,17,11,36,6.10
2014,11,17,11,37,6.10
2014,11,17,11,38,6.10
2014,11,17,11,39,6.10
2014,11,17,11,40,6.20
2014,11,17,11,41,6.20
2014,11,17,11,42,6.10
2014,11,17,11,43,6.10
2014,11,17,11,44,6.00
2014,11,17,11,45,6.00
2014,11,17,11,46,6.00
2014,11,17,11,47,6.00
2014,11,17,11,48,6.10
2014,11,17,11,49,6.10
2014,11,17,11,50,6.20
2014,11,17,11,51,6.20
2014,11,17,11,52,6.30
2014,11,17,11,53,6.30
2014,11,17,11,54,6.40
2014,11,17,11,55,6.40
2014,11,17,11,56,6.40
2014,11,17,11,57,6.50
2014,11,17,11,58,6.50
2014,11,17,11,59,6.50
2014,11,17,12,00,6.40
2014,11,17,12,01,6.40
2014,11,17,12,02,6.40
2014,11,17,12,03,6.40
2014,11,17,12,04,6.30
2014,11,17,12,05,6.30
2014,11,17,12,06,6.30
2014,11,17,12,07,6.30
2014,11,17,12,08,6.20
2014,11,17,12,09,6.20
2014,11,17,12,10,6.20
2014,11,17,12,11,6.20
2014,11,17,12,12,6.20
2014,11,17,12,13,6.20
2014,11,17,12,14,6.20
2014,11,17,12,15,6.20
2014,11,17,12,16,6.20
2014,11,17,12,17,6.20
2014,11,17,12,18,6.20
2014,11,17,12,19,6.20
2014,11,17,12,20,6.20
2014,11,17,12,21,6.20
2014,11,17,12,22,6.20
2014,11,17,12,23,6.20
2014,11,17,12,24,6.20
2014,11,17,12,25,6.20
2014,11,17,12,26,6.20
2014,11,17,12,27,6.20
2014,11,17,12,28,6.30
2014,11,17,12,29,6.30
2014,11,17,12,30,6.30
2014,11,17,12,31,6.30
2014,11,17,12,32,6.40
2014,11,17,12,33,6.40
2014,11,17,12,34,6.50
2014,11,17,12,35,6.50
2014,11,17,12,36,6.50
2014,11,17,12,37,6.50
2014,11,17,12,38,6.50
2014,11,17,12,39,6.50
2014,11,17,12,40,6.40
2014,11,17,12,41,6.40
2014,11,17,12,42,6.30
2014,11,17,12,43,6.30
2014,11,17,12,44,6.20
2014,11,17,12,45,6.20
2014,11,17,12,46,6.20
2014,11,17,12,47,6.20
2014,11,17,12,48,6.30
2014,11,17,12,49,6.20
2014,11,17,12,50,6.20
2014,11,17,12,51,6.20
2014,11,17,12,52,6.10
2014,11,17,12,53,6.10
2014,11,17,12,54,6.10
2014,11,17,12,55,6.10
2014,11,17,12,56,6.10
2014,11,17,12,57,6.10
2014,11,17,12,58,6.20
2014,11,17,12,59,6.20
2014,11,17,13,00,6.20
2014,11,17,13,01,6.20
2014,11,17,13,02,6.30
2014,11,17,13,03,6.30
2014,11,17,13,04,6.30
2014,11,17,13,05,6.30
2014,11,17,13,06,6.40
2014,11,17,13,07,6.40
2014,11,17,13,08,6.40
2014,11,17,13,09,6.40
2014,11,17,13,10,6.40
2014,11,17,13,11,6.40
2014,11,17,13,12,6.40
2014,11,17,13,13,6.40
2014,11,17,13,14,6.40
2014,11,17,13,15,6.40
2014,11,17,13,16,6.40
2014,11,17,13,17,6.40
2014,11,17,13,18,6.40
2014,11,17,13,19,6.40
2014,11,17,13,20,6.50
2014,11,17,13,21,6.60
2014,11,17,13,22,6.60
2014,11,17,13,23,6.70
2014,11,17,13,24,6.70
2014,11,17,13,25,6.70
2014,11,17,13,26,6.70
2014,11,17,13,27,6.70
2014,11,17,13,28,6.60
2014,11,17,13,29,6.60
2014,11,17,13,30,6.60
2014,11,17,13,31,6.50
2014,11,17,13,32,6.50
2014,11,17,13,33,6.50
2014,11,17,13,34,6.50
2014,11,17,13,35,6.50
2014,11,17,13,36,6.60
2014,11,17,13,37,6.60
2014,11,17,13,38,6.60
2014,11,17,13,39,6.60
2014,11,17,13,40,6.60
2014,11,17,13,41,6.60
2014,11,17,13,42,6.60
2014,11,17,13,43,6.60
2014,11,17,13,44,6.60
2014,11,17,13,45,6.60
2014,11,17,13,46,6.60
2014,11,17,13,47,6.60
2014,11,17,13,48,6.50
2014,11,17,13,49,6.50
2014,11,17,13,50,6.50
2014,11,17,13,51,6.60
2014,11,17,13,52,6.60
2014,11,17,13,53,6.60
2014,11,17,13,54,6.60
2014,11,17,13,55,6.70
2014,11,17,13,56,6.70
2014,11,17,13,57,6.70
2014,11,17,13,58,6.70
2014,11,17,13,59,6.70
2014,11,17,14,00,6.60
2014,11,17,14,01,6.60
2014,11,17,14,02,6.60
2014,11,17,14,03,6.60
2014,11,17,14,04,6.60
2014,11,17,14,05,6.60
2014,11,17,14,06,6.60
2014,11,17,14,07,6.60
2014,11,17,14,08,6.60
2014,11,17,14,09,6.60
2014,11,17,14,10,6.60
2014,11,17,14,11,6.60
2014,11,17,14,12,6.60
2014,11,17,14,13,6.60
2014,11,17,14,14,6.60
2014,11,17,14,15,6.60
2014,11,17,14,16,6.60
2014,11,17,14,17,6.60
2014,11,17,14,18,6.60
2014,11,17,14,19,6.70
2014,11,17,14,20,6.70
2014,11,17,14,21,6.70
2014,11,17,14,22,6.70
2014,11,17,14,23,6.70
2014,11,17,14,24,6.70
2014,11,17,14,25,6.70
2014,11,17,14,26,6.70
2014,11,17,14,27,6.70
2014,11,17,14,28,6.70
2014,11,17,14,29,6.70
2014,11,17,14,30,6.70
2014,11,17,14,31,6.70
2014,11,17,14,32,6.70
2014,11,17,14,33,6.70
2014,11,17,14,34,6.70
2014,11,17,14,35,6.70
2014,11,17,14,36,6.70
2014,11,17,14,37,6.70
2014,11,17,14,38,6.60
2014,11,17,14,39,6.60
2014,11,17,14,40,6.60
2014,11,17,14,41,6.60
2014,11,17,14,42,6.60
2014,11,17,14,43,6.60
2014,11,17,14,44,6.60
2014,11,17,14,45,6.70
2014,11,17,14,46,6.70
2014,11,17,14,47,6.70
2014,11,17,14,48,6.70
2014,11,17,14,49,6.70
2014,11,17,14,50,6.70
2014,11,17,14,51,6.70
2014,11,17,14,52,6.70
2014,11,17,14,53,6.60
2014,11,17,14,54,6.60
2014,11,17,14,55,6.60
2014,11,17,14,56,6.60
2014,11,17,14,57,6.60
2014,11,17,14,58,6.60
2014,11,17,14,59,6.60
2014,11,17,15,00,6.60
2014,11,17,15,01,6.60
2014,11,17,15,02,6.60
2014,11,17,15,03,6.60
2014,11,17,15,04,6.60
2014,11,17,15,05,6.60
2014,11,17,15,06,6.60
2014,11,17,15,07,6.60
2014,11,17,15,08,6.50
2014,11,17,15,09,6.50
2014,11,17,15,10,6.50
2014,11,17,15,11,6.50
2014,11,17,15,12,6.40
2014,11,17,15,13,6.40
2014,11,17,15,14,6.40
2014,11,17,15,15,6.30
2014,11,17,15,16,6.30
2014,11,17,15,17,6.30
2014,11,17,15,18,6.20
2014,11,17,15,19,6.20
2014,11,17,15,20,6.10
2014,11,17,15,21,6.00
2014,11,17,15,22,5.90
2014,11,17,15,23,5.90
2014,11,17,15,24,5.80
2014,11,17,15,25,5.80
2014,11,17,15,26,5.70
2014,11,17,15,27,5.70
2014,11,17,15,28,5.70
2014,11,17,15,29,5.60
2014,11,17,15,30,5.60
2014,11,17,15,31,5.60
2014,11,17,15,32,5.60
2014,11,17,15,33,5.60
2014,11,17,15,34,5.60
2014,11,17,15,35,5.60
2014,11,17,15,36,5.50
2014,11,17,15,37,5.50
2014,11,17,15,38,5.50
2014,11,17,15,39,5.50
2014,11,17,15,40,5.50
2014,11,17,15,41,5.50
2014,11,17,15,42,5.50
2014,11,17,15,43,5.50
2014,11,17,15,44,5.50
2014,11,17,15,45,5.50
2014,11,17,15,46,5.50
2014,11,17,15,47,5.50
2014,11,17,15,48,5.60
2014,11,17,15,49,5.60
2014,11,17,15,50,5.60
2014,11,17,15,51,5.60
2014,11,17,15,52,5.60
2014,11,17,15,53,5.50
2014,11,17,15,54,5.50
2014,11,17,15,55,5.50
2014,11,17,15,56,5.40
2014,11,17,15,57,5.40
2014,11,17,15,58,5.30
2014,11,17,15,59,5.30
2014,11,17,16,00,5.20
2014,11,17,16,01,5.20
2014,11,17,16,02,5.10
2014,11,17,16,03,5.10
2014,11,17,16,04,5.00
2014,11,17,16,05,5.00
2014,11,17,16,06,4.90
2014,11,17,16,07,4.90
2014,11,17,16,08,4.80
2014,11,17,16,09,4.80
2014,11,17,16,10,4.70
2014,11,17,16,11,4.60
2014,11,17,16,12,4.60
2014,11,17,16,13,4.50
2014,11,17,16,14,4.40
2014,11,17,16,15,4.40
2014,11,17,16,16,4.30
2014,11,17,16,17,4.20
2014,11,17,16,18,4.10
2014,11,17,16,19,4.00
2014,11,17,16,20,3.90
2014,11,17,16,21,3.80
2014,11,17,16,22,3.70
2014,11,17,16,23,3.70
2014,11,17,16,24,3.60
2014,11,17,16,25,3.50
2014,11,17,16,26,3.50
2014,11,17,16,27,3.40
2014,11,17,16,28,3.40
2014,11,17,16,29,3.40
2014,11,17,16,30,3.40
2014,11,17,16,31,3.30
2014,11,17,16,32,3.30
2014,11,17,16,33,3.30
2014,11,17,16,34,3.30
2014,11,17,16,35,3.30
2014,11,17,16,36,3.20
2014,11,17,16,37,3.20
2014,11,17,16,38,3.20
2014,11,17,16,39,3.20
2014,11,17,16,40,3.10
2014,11,17,16,41,3.10
2014,11,17,16,42,3.10
2014,11,17,16,43,3.00
2014,11,17,16,44,3.00
2014,11,17,16,45,2.90
2014,11,17,16,46,2.90
2014,11,17,16,47,2.80
2014,11,17,16,48,2.80
2014,11,17,16,49,2.80
2014,11,17,16,50,2.70
2014,11,17,16,51,2.70
2014,11,17,16,52,2.70
2014,11,17,16,53,2.60
2014,11,17,16,54,2.50
2014,11,17,16,55,2.50
2014,11,17,16,56,2.40
2014,11,17,16,57,2.30
2014,11,17,16,58,2.30
2014,11,17,16,59,2.20
2014,11,17,17,00,2.20
2014,11,17,17,01,2.10
2014,11,17,17,02,2.00
2014,11,17,17,03,2.00
2014,11,17,17,04,1.90
2014,11,17,17,05,1.90
2014,11,17,17,06,1.80
2014,11,17,17,07,1.80
2014,11,17,17,08,1.80
2014,11,17,17,09,1.80
2014,11,17,17,10,1.70
2014,11,17,17,11,1.70
2014,11,17,17,12,1.70
2014,11,17,17,13,1.60
2014,11,17,17,14,1.50
2014,11,17,17,15,1.50
2014,11,17,17,16,1.40
2014,11,17,17,17,1.30
2014,11,17,17,18,1.30
2014,11,17,17,19,1.30
2014,11,17,17,20,1.30
2014,11,17,17,21,1.30
2014,11,17,17,22,1.30
2014,11,17,17,23,1.20
2014,11,17,17,24,1.20
2014,11,17,17,25,1.20
2014,11,17,17,26,1.10
2014,11,17,17,27,1.10
2014,11,17,17,28,1.10
2014,11,17,17,29,1.00
2014,11,17,17,30,1.00
2014,11,17,17,31,0.90
2014,11,17,17,32,0.90
2014,11,17,17,33,0.80
2014,11,17,17,34,0.80
2014,11,17,17,35,0.80
2014,11,17,17,36,0.80
2014,11,17,17,37,0.70
2014,11,17,17,38,0.70
2014,11,17,17,39,0.70
2014,11,17,17,40,0.60
2014,11,17,17,41,0.60